GEFSSE_con_cape1000_036.txt.gz
Probability
32 74 100 100 100 100 100 100 100 100 100 100 100 100 100 100 100 100 100 100 97 94 94 100 94 97 100 97 97 97 97 97 100 100 100 100 100 100 100 100 100 100 100
39 87 100 100 100 100 100 100 100 100 100 100 100 100 100 100 100 100 100 100 90 87 90 94 94 90 94 100 97 97 97 97 97 100 100 100 100 100 100 100 100 100 97
58 94 100 100 100 100 100 100 100 100 100 100 100 100 100 100 100 100 94 94 94 90 90 94 94 97 94 100 97 97 97 97 97 97 97 100 100 100 97 100 97 100 97
39 94 100 100 100 100 100 100 100 100 100 100 100 97 97 97 97 94 94 84 87 90 87 87 90 97 87 87 97 97 94 90 84 77 84 84 90 94 97 97 97 97 100
42 94 100 100 100 100 100 100 100 100 97 94 87 84 81 84 84 77 84 77 74 81 84 84 90 90 90 87 87 90 90 84 74 71 81 90 100 94 87 94 94 90 84
42 97 100 100 100 100 100 100 100 100 94 84 84 77 81 77 71 74 61 45 55 61 71 87 87 87 84 84 87 94 94 87 77 81 81 87 90 81 84 87 97 90 84
29 48 100 100 100 100 100 100 100 100 97 84 84 74 71 71 71 58 55 45 32 35 58 65 71 74 77 81 77 84 84 81 74 74 74 84 90 68 65 74 87 90 90
19 39 74 100 100 100 100 100 100 97 94 94 90 77 71 55 55 52 42 32 23 19 32 61 68 61 68 71 55 71 81 84 48 16 45 68 94 81 74 77 77 90 90
16 13 52 90 100 100 100 100 100 100 100 100 97 90 84 71 65 48 29 19 10 3 6 23 32 42 42 42 52 55 58 65 48 19 3 42 77 87 81 84 77 84 94
16 16 16 45 71 87 100 100 100 100 100 100 100 97 97 84 74 58 39 26 6 3 0 3 16 23 35 39 42 48 35 32 39 13 3 35 68 90 84 81 74 74 84
13 10 6 16 48 81 81 94 100 100 100 100 100 100 100 87 61 77 55 35 13 0 0 0 3 19 35 29 32 29 16 35 19 10 19 52 55 58 61 74 77 81 81
13 16 19 26 48 65 77 77 100 100 100 100 100 97 94 71 32 16 55 52 16 6 0 0 0 3 0 13 10 10 6 10 3 3 16 16 39 45 45 42 68 74 81
52 48 35 48 45 61 87 94 97 100 100 100 97 94 100 84 74 23 55 74 58 10 6 3 0 0 0 0 0 0 3 0 0 0 6 19 23 13 16 19 26 45 61
23 39 45 45 65 68 84 97 90 97 97 100 100 100 100 97 87 35 35 23 23 32 6 3 0 0 0 0 0 0 0 0 0 0 19 3 13 3 3 3 6 10 35
6 6 19 26 35 55 77 84 87 100 94 94 97 97 97 97 97 58 29 35 23 13 10 3 0 0 0 0 0 0 0 0 0 0 0 10 6 6 10 0 0 6 19
3 0 3 10 19 29 52 61 74 84 84 90 97 97 90 100 97 81 58 29 16 10 6 0 0 0 0 0 0 0 0 0 0 0 0 0 0 0 3 6 19 19 16
0 0 0 0 3 10 19 23 39 55 58 74 84 87 81 90 87 94 74 29 29 19 3 0 0 0 0 0 0 0 0 0 0 0 0 0 0 0 0 13 13 29 23
0 0 0 0 0 0 3 13 19 32 48 52 58 71 65 68 77 94 94 71 48 29 16 10 0 0 0 0 0 0 0 0 0 0 0 0 0 0 0 3 6 13 32
0 0 0 0 0 0 0 3 10 13 39 48 52 55 52 55 58 81 90 87 52 77 58 10 3 0 0 0 0 0 0 0 0 0 0 0 0 0 0 0 0 13 13
0 0 0 0 0 0 0 3 13 19 29 45 48 52 42 35 45 58 81 81 81 90 74 39 13 3 3 3 0 0 0 0 0 0 0 0 0 0 0 0 0 0 6
0 0 0 0 0 0 0 0 3 10 13 26 48 48 58 42 42 52 55 61 68 65 48 26 32 6 6 3 3 0 0 0 0 0 0 0 0 0 0 0 0 0 0
0 0 0 0 0 0 0 0 0 0 10 16 39 45 58 52 65 48 58 68 58 55 45 42 39 26 19 6 6 6 0 0 0 0 0 0 0 0 0 0 0 0 0
0 0 0 0 0 3 0 0 0 3 19 19 26 42 39 48 58 58 58 61 55 55 45 35 23 23 26 6 3 0 0 0 10 0 0 0 0 0 0 0 0 0 0
0 0 0 0 0 3 3 0 0 10 13 13 13 26 32 35 55 61 68 65 55 58 55 39 23 19 23 10 3 0 0 0 0 0 0 0 0 0 0 0 0 0 0
0 0 0 0 3 3 3 3 10 13 19 23 26 26 29 29 29 35 48 65 55 55 39 32 29 23 23 10 0 0 0 0 0 3 0 0 0 0 0 0 0 0 0
0 0 0 0 3 3 3 6 3 10 13 26 32 35 32 35 32 26 29 35 39 42 35 39 26 23 26 16 13 6 10 3 0 0 0 0 3 0 0 0 0 0 0

GEFSSE_con_cape1000_042.txt.gz
Probability
97 94 100 100 100 100 100 100 100 100 97 97 87 81 77 74 68 81 87 77 81 77 77 84 87 90 97 97 97 97 97 97 97 100 100 100 100 100 100 100 100 100 100
94 100 100 100 100 100 100 100 100 100 97 97 94 94 90 90 87 81 81 68 81 84 84 90 90 81 84 94 94 97 97 94 97 97 100 100 100 100 100 100 100 97 100
97 97 100 100 100 100 100 100 100 100 97 97 97 97 90 87 84 77 71 71 77 87 81 74 81 84 84 90 87 84 90 94 94 97 97 97 97 100 100 100 100 100 100
100 100 100 100 100 100 100 100 100 100 100 97 97 94 97 84 74 61 65 68 61 68 71 74 74 84 87 77 77 74 74 81 90 97 94 94 94 94 94 100 97 100 100
100 100 100 100 100 100 100 100 100 100 100 97 94 94 84 77 77 65 68 55 58 55 65 77 74 81 77 81 77 68 65 65 84 94 81 90 84 94 90 90 94 87 87
100 100 100 100 100 100 100 100 100 100 100 90 81 81 74 71 65 55 52 52 45 48 58 74 71 71 81 71 68 61 65 74 81 81 90 94 81 94 90 94 84 90 84
94 100 100 100 100 100 100 100 100 100 94 87 84 71 68 71 61 58 39 35 35 32 42 52 71 68 74 68 58 61 77 81 84 71 87 97 77 87 87 84 87 94 81
90 100 100 100 100 100 100 100 100 100 97 87 77 77 71 68 68 55 58 35 26 26 32 35 55 61 55 45 45 55 65 87 71 68 87 81 87 84 71 74 77 90 87
45 87 100 100 100 100 100 100 100 100 97 94 94 90 84 81 74 65 55 42 16 16 13 13 32 35 39 35 39 52 65 90 71 65 71 65 97 87 77 81 84 90 97
16 29 87 97 97 100 100 100 100 100 100 100 97 97 94 90 81 77 68 58 26 6 0 6 16 29 32 42 48 48 68 65 6 26 29 55 94 77 71 81 77 81 94
29 19 16 55 84 97 100 100 100 100 100 100 100 100 100 94 71 74 77 74 48 23 6 3 10 26 39 52 74 74 68 3 13 32 26 87 81 61 48 68 71 77 74
35 26 19 26 42 52 74 100 100 100 100 100 100 100 94 74 61 71 84 84 58 39 19 13 13 26 16 6 23 74 3 0 10 32 61 87 71 48 35 45 55 68 71
16 16 10 13 13 26 55 71 100 97 97 97 84 84 90 65 48 42 45 74 52 19 6 6 0 0 0 0 0 0 0 0 0 10 45 84 55 42 26 26 29 45 61
0 0 6 3 3 13 35 45 65 77 77 87 90 87 61 45 29 16 10 23 32 13 10 3 0 0 0 0 3 0 0 0 3 3 23 65 45 26 19 10 10 16 29
0 0 0 0 0 3 19 29 19 42 61 55 65 74 68 58 35 19 6 13 23 16 16 13 3 0 0 0 0 0 0 0 3 3 3 52 42 23 6 6 10 13 13
0 0 0 0 0 3 3 10 16 19 39 48 52 55 52 55 55 52 13 6 13 16 13 3 3 0 0 0 0 0 0 0 0 0 0 13 39 19 6 13 6 13 10
0 0 0 0 0 0 0 6 3 23 13 23 29 35 39 45 45 48 29 10 3 3 3 0 0 0 0 0 0 0 0 0 0 0 0 0 0 0 13 19 13 23 23
0 0 0 0 0 0 0 3 6 6 6 13 23 23 23 13 23 52 45 32 19 10 3 3 3 0 0 0 0 0 0 0 0 0 0 0 0 0 0 10 19 26 35
0 0 0 0 0 0 0 0 3 10 10 6 19 19 26 23 23 29 48 48 19 26 10 3 0 0 0 0 0 0 0 0 0 0 0 0 0 0 0 0 16 23 35
0 0 0 0 0 0 0 0 3 13 10 13 26 23 16 23 26 16 39 32 35 19 16 10 10 10 3 0 0 0 0 0 0 0 0 0 0 0 0 0 0 3 19
0 0 0 0 0 0 0 0 0 3 6 16 13 32 26 26 19 19 10 19 29 29 13 10 13 3 6 0 0 0 0 0 0 0 0 0 0 0 0 0 0 0 0
0 0 0 0 0 0 0 0 0 0 3 10 23 16 26 26 29 16 13 16 16 19 16 19 6 3 0 0 0 0 0 0 0 0 0 0 0 0 0 0 0 0 0
0 0 0 0 0 0 0 3 0 0 10 13 13 16 23 32 32 32 23 13 19 10 16 13 6 3 0 0 0 0 0 0 0 0 0 0 0 0 0 0 0 0 0
0 0 0 0 0 0 6 3 3 6 3 3 6 13 16 23 29 32 29 26 19 16 13 19 13 6 3 0 0 0 0 0 0 0 0 0 0 0 0 0 0 0 0
0 0 0 0 0 0 0 3 6 6 3 3 13 23 19 16 32 39 35 26 26 13 13 13 13 6 3 3 0 0 0 0 0 0 0 0 0 0 0 0 0 0 0
0 0 0 0 0 0 0 0 3 3 3 6 10 16 16 13 19 19 26 23 23 19 16 10 10 6 3 3 0 0 0 0 0 0 0 0 0 0 0 0 0 0 0

GEFSSE_con_cape1000_048.txt.gz
Probability
23 90 100 100 100 100 100 100 100 100 100 100 97 94 90 90 94 97 97 97 97 97 100 100 100 100 100 100 100 100 100 100 100 100 97 100 100 100 100 100 100 100 100
55 100 100 100 100 100 100 100 100 100 100 100 100 100 97 94 97 97 97 97 100 100 100 100 97 100 100 100 94 100 100 100 100 100 97 97 100 100 100 100 100 100 100
81 100 100 100 100 100 100 100 100 100 100 100 100 100 100 87 90 87 90 87 87 87 90 97 97 94 97 100 94 94 94 97 97 97 90 87 94 97 97 97 100 100 100
94 100 100 100 100 100 100 100 100 100 100 100 100 100 100 100 94 81 71 74 74 81 81 90 87 94 94 90 84 81 81 87 94 87 65 77 81 94 100 100 100 100 100
94 100 100 100 100 100 100 100 100 100 100 100 100 100 100 90 90 71 71 61 61 71 74 81 87 90 90 84 77 77 81 87 94 68 52 52 71 97 94 94 94 94 97
87 100 100 100 100 100 100 100 100 100 100 100 100 97 90 81 81 74 68 65 55 58 68 84 87 81 77 77 77 65 68 77 77 48 32 45 71 94 94 87 90 90 90
97 100 100 100 100 100 100 100 100 100 100 97 87 87 77 77 74 68 65 65 55 45 45 65 81 81 81 65 61 55 58 77 58 45 29 39 77 97 90 87 90 90 87
94 97 97 100 100 100 100 100 100 100 100 100 90 87 81 81 87 77 65 61 48 35 39 55 71 74 77 77 58 58 61 65 48 48 29 35 87 84 77 84 90 94 87
77 84 90 97 97 97 100 100 100 100 100 100 100 100 87 87 90 87 84 65 45 39 42 48 58 68 74 77 65 65 77 81 3 26 35 52 90 90 81 77 94 94 90
23 32 45 61 74 90 97 100 100 100 100 100 100 100 100 94 90 87 87 84 61 42 35 48 52 68 74 77 81 77 90 35 0 6 13 71 100 97 87 84 97 100 97
6 3 3 23 29 48 61 87 97 97 97 100 97 97 100 90 87 84 90 87 84 61 48 48 45 55 61 74 97 90 71 0 0 0 0 87 100 94 87 84 87 94 94
3 3 3 3 3 10 35 52 61 77 84 87 87 94 94 68 35 55 71 94 94 84 81 58 58 65 61 3 10 77 23 0 0 0 3 97 100 97 77 84 84 87 87
0 0 0 0 0 0 3 13 16 35 48 58 68 58 61 58 29 35 6 55 90 84 52 45 48 16 0 0 0 0 0 0 0 0 10 100 100 97 84 77 77 81 84
0 0 0 0 0 0 0 0 0 6 13 19 32 32 29 35 19 10 3 3 10 19 10 6 3 3 0 0 0 0 0 0 0 0 6 100 100 94 74 58 71 77 77
0 0 0 0 0 0 0 0 0 0 0 10 6 13 16 16 10 3 3 0 0 0 3 3 3 0 0 0 0 0 0 0 0 0 0 100 100 94 84 68 58 48 55
0 0 0 0 0 0 0 0 0 0 0 0 0 0 6 13 0 0 0 0 0 0 0 3 3 3 0 0 0 0 0 0 0 0 0 42 90 77 87 71 58 45 42
0 0 0 0 0 0 0 0 0 0 0 0 0 0 0 3 6 0 0 3 0 0 0 0 0 0 0 0 0 0 0 0 0 0 0 3 13 32 61 84 74 61 55
0 0 0 0 0 0 0 0 0 0 0 0 0 0 0 0 3 3 0 0 3 0 0 0 0 0 0 0 0 0 0 0 0 0 0 0 0 0 3 58 81 94 71
0 0 0 0 0 0 0 0 0 0 0 0 0 0 0 0 0 0 0 0 0 0 0 0 0 0 0 0 0 0 0 0 0 0 0 0 0 0 0 3 42 74 94
0 0 0 0 0 0 0 0 0 0 0 0 0 0 0 0 0 0 0 0 0 0 0 0 0 0 0 0 0 0 0 0 0 0 0 0 0 0 0 0 0 0 74
0 0 0 0 0 0 0 0 0 0 0 0 0 0 0 0 0 0 0 0 0 0 0 0 0 0 0 0 0 0 0 0 0 0 0 0 0 0 0 0 0 0 6
0 0 0 0 0 0 0 0 0 0 0 0 0 0 0 0 0 0 0 0 0 0 0 0 0 0 0 0 0 0 0 0 0 0 0 0 0 0 0 0 0 0 0
0 0 0 0 0 0 0 0 0 0 0 0 0 0 0 0 0 0 0 0 0 0 0 0 0 3 0 0 0 0 0 0 0 0 0 0 0 0 0 0 0 0 0
0 0 0 0 0 0 0 0 0 0 0 0 0 0 0 0 0 0 0 0 0 0 0 0 0 0 3 0 0 0 0 0 0 0 0 0 0 0 0 0 0 0 0
0 0 0 0 0 0 0 0 0 0 0 0 0 0 0 0 0 0 0 0 0 3 3 0 0 0 0 0 0 0 0 0 0 0 0 0 0 0 0 0 0 0 0
0 0 0 0 0 0 0 0 0 0 0 0 0 0 0 0 0 0 0 0 0 3 3 3 0 0 0 0 0 0 0 0 0 0 0 0 0 0 0 0 0 0 0

GEFSSE_con_cape1000_054.txt.gz
Probability
3 16 100 100 100 100 100 100 100 100 100 97 94 94 97 97 94 94 97 97 97 97 100 100 100 100 100 100 100 100 100 100 100 100 100 100 100 100 100 100 100 100 100
6 65 100 100 100 100 100 100 100 100 100 100 94 100 97 97 94 97 97 97 90 94 100 100 100 100 100 100 100 100 100 100 100 94 97 97 100 100 100 100 100 100 100
35 87 100 100 100 100 100 100 100 100 100 100 100 100 100 97 97 97 94 97 97 90 97 97 100 100 100 94 97 94 94 97 97 90 90 84 90 100 100 100 100 100 100
65 97 100 100 100 100 100 100 100 100 100 100 100 100 100 100 97 87 87 94 84 81 81 94 94 97 94 90 97 90 90 90 94 87 71 81 81 97 94 100 100 100 100
77 100 100 100 100 100 100 100 100 100 100 100 100 100 100 100 100 84 84 77 74 77 71 87 90 90 90 84 84 81 87 90 94 61 55 65 74 94 97 97 97 97 97
87 100 100 100 100 100 100 100 100 100 100 100 100 100 100 100 94 81 77 61 65 68 74 81 87 87 87 81 74 71 84 90 71 32 42 58 71 87 81 81 87 90 94
65 90 94 100 100 100 100 100 100 100 100 100 100 100 100 94 84 74 65 71 61 65 68 77 81 84 84 77 71 61 71 87 29 26 29 42 68 87 77 81 81 90 87
52 61 71 90 97 97 100 100 100 100 100 100 100 100 100 97 87 84 74 68 68 58 55 65 81 81 84 84 71 58 61 90 55 29 26 35 71 84 77 81 81 81 81
13 19 26 32 48 71 90 97 100 97 100 100 100 100 100 100 100 97 81 74 68 61 52 58 55 74 81 81 65 71 74 87 19 19 35 35 84 81 74 77 84 87 87
3 3 3 6 6 23 26 68 87 94 94 97 97 100 100 100 100 100 94 90 77 68 58 52 65 61 74 74 71 74 94 48 3 6 13 39 87 81 74 74 87 90 87
0 0 0 0 3 3 3 10 39 48 61 65 84 87 87 97 84 94 97 94 90 84 71 65 58 65 68 71 77 87 55 0 0 3 3 48 87 87 84 84 84 90 94
0 0 0 0 0 0 0 0 0 3 16 23 39 42 58 58 61 77 81 97 94 94 87 87 71 65 58 16 3 29 0 0 0 3 0 68 100 94 81 84 87 94 97
0 0 0 0 0 0 0 0 0 0 0 0 3 13 19 32 29 45 23 45 68 84 77 71 68 39 13 0 0 0 0 0 0 0 0 71 100 97 77 77 84 87 87
0 0 0 0 0 0 0 0 0 0 0 0 3 3 3 3 10 10 6 0 3 3 19 6 3 6 0 0 0 0 0 0 0 0 0 29 100 97 84 77 81 87 94
0 0 0 0 0 0 0 0 0 0 0 0 3 0 3 3 3 6 6 10 3 3 3 3 3 0 0 0 0 0 0 0 0 0 0 19 97 100 97 77 77 77 87
0 0 0 0 0 0 0 0 0 0 0 0 0 0 0 0 3 3 3 0 0 0 3 3 3 0 0 0 0 0 0 0 0 0 0 6 71 100 100 97 74 71 84
0 0 0 0 0 0 0 0 0 0 0 0 0 0 0 0 0 0 0 0 0 0 0 0 0 0 0 0 0 0 0 0 0 0 0 0 10 52 100 100 97 77 65
0 0 0 0 0 0 0 0 0 0 0 0 0 0 0 0 0 0 0 0 0 0 0 0 0 0 0 0 0 0 0 0 0 0 0 0 0 3 26 97 100 94 71
0 0 0 0 0 0 0 0 0 0 0 0 0 0 0 0 0 0 0 0 0 0 0 0 0 0 0 0 0 0 0 0 0 0 0 0 0 0 0 10 81 94 90
0 0 0 0 0 0 0 0 0 0 0 0 0 0 0 0 0 0 0 0 0 0 0 0 0 0 0 0 0 0 0 0 0 0 0 0 0 0 0 0 3 16 74
0 0 0 0 0 0 0 0 0 0 0 0 0 0 0 0 0 0 0 0 0 0 0 0 0 0 0 0 0 0 0 0 0 0 0 0 0 0 0 0 0 0 0
0 0 0 0 0 0 0 0 0 0 0 0 0 0 0 0 0 0 0 0 0 0 0 0 0 0 0 0 0 0 0 0 0 0 0 0 0 0 0 0 0 0 0
0 0 0 0 0 0 0 0 0 0 0 0 0 0 0 0 0 0 0 0 0 0 0 0 0 0 0 0 0 0 0 0 0 0 0 0 0 0 0 0 0 0 0
0 0 0 0 0 0 0 0 0 0 0 0 0 0 0 0 0 0 0 0 0 0 0 0 0 0 0 0 0 0 0 0 0 0 0 0 0 0 0 0 0 0 0
0 0 0 0 0 0 0 0 0 0 0 0 0 0 0 0 0 0 0 0 0 0 0 0 0 0 0 0 0 0 0 0 0 0 0 0 0 0 0 0 0 0 0
0 0 0 0 0 0 0 0 0 0 0 0 0 0 0 0 0 0 0 0 0 0 0 0 0 0 0 0 0 0 0 0 0 0 0 0 0 0 0 0 0 0 0

GEFSSE_con_cape1000_060.txt.gz
Probability
6 23 94 97 94 90 97 100 100 100 100 100 97 97 97 94 90 90 94 97 97 94 97 100 100 100 100 100 100 100 100 100 100 100 100 100 100 100 100 97 100 100 100
6 16 97 100 100 100 100 100 100 97 97 97 94 94 97 97 94 90 90 90 90 94 94 100 100 100 100 97 100 100 97 94 94 100 100 100 100 100 97 97 94 97 100
6 26 90 100 100 100 100 100 97 97 100 100 97 97 97 97 97 97 90 90 90 90 94 97 100 100 97 94 94 97 94 90 87 94 97 100 100 97 90 94 94 97 97
23 42 71 100 100 100 100 100 100 100 100 100 100 100 100 100 100 100 90 94 94 94 87 87 94 97 90 94 90 90 87 84 84 87 87 81 90 97 94 87 90 87 94
35 68 84 100 100 100 100 97 97 100 100 100 94 100 100 100 100 100 94 90 84 81 74 87 90 90 87 81 84 90 81 84 77 77 71 90 100 94 87 87 81 81 81
39 58 74 94 94 90 97 97 94 90 94 97 97 97 97 100 100 100 90 84 71 74 71 84 87 84 81 71 74 74 84 81 77 71 71 81 84 90 74 74 77 77 81
29 42 58 77 71 81 81 90 87 87 84 87 87 94 100 100 100 97 84 74 74 71 77 74 71 84 74 68 61 58 71 74 58 65 71 68 84 77 77 68 74 81 81
16 16 19 23 32 45 65 77 74 84 84 81 87 84 84 94 94 94 94 77 81 77 71 68 65 71 74 77 52 52 52 81 35 32 58 68 81 74 68 71 68 77 81
6 3 3 10 10 16 26 32 52 55 74 71 71 84 87 90 90 94 87 87 81 81 77 61 55 58 58 58 55 45 55 65 58 55 32 58 74 71 61 55 65 74 77
3 3 3 3 10 10 6 6 16 29 35 35 42 55 65 74 77 84 87 90 84 77 71 61 52 52 48 48 52 55 68 45 52 42 42 61 68 65 65 58 68 74 77
0 0 0 0 0 0 3 3 10 16 16 19 19 23 42 45 48 65 58 77 77 87 74 65 58 55 48 45 58 71 61 29 39 58 39 71 68 71 65 65 68 74 74
0 0 0 0 0 0 0 3 10 16 16 23 26 26 32 29 52 23 16 58 77 74 87 77 74 55 29 39 52 32 16 35 39 39 45 65 77 84 61 71 74 74 77
0 0 0 0 0 0 0 0 0 3 16 16 19 19 26 26 39 42 48 61 74 65 74 84 84 65 42 26 26 10 6 6 16 26 39 71 71 74 74 71 65 71 81
0 0 0 0 0 0 0 0 6 3 6 16 19 16 26 26 26 26 48 55 58 84 74 87 87 42 23 10 3 3 0 10 10 23 74 58 55 77 77 68 65 71 74
0 0 0 0 0 0 0 0 0 0 0 3 10 13 13 23 19 16 39 55 48 61 68 81 71 45 23 6 3 3 3 0 0 10 42 45 42 87 81 81 71 74 77
0 0 0 0 0 0 0 0 0 0 0 0 3 3 6 10 32 23 32 16 35 52 58 61 52 45 52 26 13 6 3 3 0 6 6 26 35 77 97 90 71 74 81
0 0 0 0 0 0 0 0 0 0 0 0 0 0 0 3 10 13 26 23 26 42 39 52 39 48 29 16 10 13 3 3 3 0 3 10 16 26 81 100 94 84 74
0 0 0 0 0 0 0 0 0 0 0 0 0 0 0 0 0 10 29 26 32 42 48 45 48 58 35 23 23 19 13 10 3 0 0 0 3 26 39 81 97 97 81
0 0 0 0 0 0 0 0 0 0 0 0 0 0 0 0 0 3 10 26 23 32 45 29 39 45 39 35 26 26 16 10 3 0 0 0 0 29 42 58 81 100 100
0 0 0 0 0 0 0 0 0 0 0 0 0 3 3 0 0 0 6 6 23 23 39 42 39 39 35 26 6 3 19 13 3 0 0 0 0 3 10 19 45 32 87
0 0 0 0 0 0 0 0 0 0 0 0 3 3 3 0 0 3 0 3 6 10 16 29 35 32 32 35 16 10 13 3 0 0 3 0 3 10 10 10 19 35 35
0 0 0 0 0 0 0 0 0 0 0 0 0 3 0 0 0 3 3 3 6 10 6 16 26 42 26 29 19 6 3 6 3 0 3 13 3 10 10 3 6 10 3
0 0 0 0 0 0 0 0 0 0 0 0 0 3 0 0 0 0 0 3 3 3 10 16 16 19 32 23 29 13 3 0 10 3 0 3 6 19 13 0 0 0 0
0 0 0 0 0 0 0 0 0 3 3 3 3 0 0 0 0 0 0 0 0 3 3 10 10 13 13 16 23 26 6 3 13 3 0 0 0 3 3 0 0 0 0
0 0 0 0 0 0 0 0 0 0 0 0 0 0 0 0 0 0 0 0 0 3 3 3 6 13 32 16 16 10 3 6 0 6 0 0 0 3 3 3 10 3 3
0 0 0 0 0 0 0 0 0 0 0 0 0 0 0 0 3 0 0 3 0 0 0 3 6 13 19 16 16 19 6 3 0 0 3 0 0 3 6 10 10 16 10

GEFSSE_con_cape1000_066.txt.gz
Probability
84 87 100 97 90 90 94 94 97 94 94 87 87 87 81 87 84 87 87 84 90 94 94 97 100 100 100 97 100 100 100 100 100 97 97 100 100 100 97 97 100 100 97
84 90 100 97 94 94 87 94 94 84 84 81 84 87 90 87 84 90 90 90 87 87 90 90 90 97 100 97 97 97 97 97 100 90 97 97 100 94 97 97 100 100 100
68 81 94 100 97 94 90 87 84 84 87 84 87 87 97 100 94 94 94 87 87 90 90 90 94 94 97 97 97 97 94 87 87 90 94 97 100 94 87 97 97 100 100
65 81 84 94 94 94 84 74 74 71 84 87 87 87 94 94 97 94 97 94 90 84 87 87 87 87 87 90 87 87 90 84 87 90 87 94 90 90 90 87 87 84 90
68 77 84 90 90 87 81 77 77 84 77 71 77 87 87 90 90 97 90 90 81 81 81 81 87 81 81 84 74 77 84 81 84 84 77 81 84 90 84 77 84 77 87
42 58 68 81 81 74 68 61 65 68 71 61 65 77 77 94 100 97 90 87 74 74 74 74 81 71 74 71 71 74 77 84 74 61 71 87 90 81 71 68 65 71 74
23 32 35 45 42 39 48 35 45 45 48 52 52 65 65 71 81 90 90 84 77 74 71 71 58 65 68 68 61 58 77 81 81 52 68 84 74 84 71 71 68 71 77
3 10 10 29 19 23 26 26 29 32 26 39 58 55 58 65 71 74 77 87 87 77 71 74 65 48 55 65 58 58 61 87 42 39 61 65 77 74 65 68 68 74 74
6 6 6 6 13 19 19 16 19 26 23 26 26 32 42 58 58 65 77 84 81 81 74 74 65 55 58 58 52 55 65 87 55 39 45 74 87 68 58 58 61 65 71
3 0 0 3 6 6 6 13 16 16 23 23 19 23 19 29 42 58 58 77 84 77 77 71 71 61 61 61 65 61 77 77 29 19 45 77 97 71 61 61 55 71 71
3 3 3 0 0 0 0 6 13 13 19 23 19 16 19 10 19 39 35 52 52 65 74 81 68 71 68 74 81 87 77 23 16 26 45 90 100 71 74 65 55 74 74
0 0 0 0 0 0 0 0 0 3 10 13 3 10 19 19 13 3 19 32 35 55 65 81 74 74 68 26 58 100 32 13 3 16 68 94 97 77 71 65 65 68 68
0 0 0 0 0 0 0 0 0 0 3 0 6 10 16 19 16 13 10 13 19 29 35 55 71 45 23 6 16 13 3 0 0 10 61 100 97 87 71 65 71 68 61
0 0 0 0 0 0 0 0 0 0 3 6 10 6 3 16 3 3 10 10 16 19 13 16 19 10 10 3 10 6 3 3 0 10 42 100 97 94 84 74 71 65 61
0 0 0 0 0 0 0 0 0 0 0 0 3 3 3 6 3 3 3 10 10 16 10 13 10 3 3 0 0 0 0 0 0 13 32 100 100 100 97 74 77 71 61
0 0 0 0 0 0 0 0 0 0 0 0 0 0 0 0 0 3 6 6 10 10 6 3 3 0 6 3 0 0 0 0 0 10 0 81 100 100 100 97 84 77 84
0 0 0 0 0 0 0 0 0 0 0 0 0 3 0 0 0 0 3 3 6 10 6 3 3 3 3 0 3 0 0 0 0 3 3 3 6 77 100 100 100 94 90
0 0 0 0 0 0 0 0 0 0 0 0 0 0 0 0 0 0 0 3 6 6 6 6 3 3 3 0 0 0 0 0 6 0 3 3 0 0 35 100 100 100 97
0 0 0 0 0 0 0 0 0 0 0 0 0 0 0 0 0 0 3 6 6 10 6 3 6 3 0 0 0 0 0 3 0 0 0 0 0 0 3 23 100 100 100
0 0 0 0 0 0 0 0 0 0 0 0 0 0 0 0 0 0 0 3 3 6 6 6 3 3 0 0 0 0 0 0 0 0 0 0 0 0 0 0 13 45 100
0 0 0 0 0 0 0 0 0 0 0 0 0 0 0 0 0 0 3 3 3 3 6 6 0 0 0 0 0 0 0 0 0 0 0 0 0 0 0 3 0 3 16
0 0 0 0 0 0 0 0 0 0 0 0 0 0 0 0 0 0 0 0 0 3 3 3 3 0 0 0 0 0 0 0 0 0 0 0 0 0 0 3 0 3 0
0 0 0 0 0 0 0 0 0 0 0 0 0 0 0 0 0 0 0 0 0 0 0 0 0 0 3 0 0 0 0 0 0 0 0 0 0 0 0 0 0 0 0
0 0 0 0 0 0 0 0 0 0 0 0 0 0 0 0 0 0 0 0 0 0 0 0 0 0 0 0 0 0 0 0 0 0 0 0 0 0 0 0 0 0 0
0 0 0 0 0 0 0 0 0 0 0 0 0 0 0 0 0 0 0 0 0 0 0 0 0 0 0 0 0 0 0 0 0 0 0 0 0 0 0 0 0 0 0
0 0 0 0 0 0 0 0 0 0 0 0 0 0 0 0 0 0 0 0 0 0 0 0 0 0 0 0 0 0 0 0 0 0 0 0 0 0 0 0 0 0 0

GEFSSE_con_cape1000_072.txt.gz
Probability
29 87 97 100 100 100 100 97 100 97 94 87 87 90 94 94 94 94 94 97 90 94 94 87 90 100 94 97 100 100 100 100 97 94 97 100 100 100 100 100 100 100 97
29 97 100 100 97 94 94 94 90 90 87 87 84 87 90 90 94 94 97 94 90 87 90 90 87 90 87 94 97 97 90 90 94 90 97 97 100 100 100 100 100 100 97
61 87 100 100 97 97 97 90 94 90 90 84 81 84 81 90 94 90 94 90 84 81 90 94 84 87 90 90 90 94 94 90 90 90 94 87 94 100 100 97 97 100 100
58 81 84 97 97 90 90 87 84 81 77 77 84 81 81 81 77 87 81 77 74 81 81 81 84 74 81 81 81 81 87 87 90 84 74 81 87 94 100 94 94 100 100
58 71 87 87 87 90 81 81 81 81 81 77 87 87 84 81 81 84 81 77 74 77 74 71 77 71 77 71 71 74 87 84 84 71 55 58 65 90 97 94 90 97 97
39 52 71 81 81 81 77 68 68 65 71 68 74 81 71 77 84 87 81 81 71 61 68 68 68 68 71 77 68 65 81 81 74 29 42 48 65 84 84 90 87 94 87
26 35 45 55 61 55 58 48 52 45 52 61 61 65 71 68 84 84 81 81 77 65 65 65 68 65 58 61 74 65 77 84 48 19 32 32 58 87 81 84 84 87 90
13 16 23 39 42 35 39 45 45 39 39 52 55 58 61 74 87 87 84 87 77 74 77 77 71 61 58 68 61 65 74 87 39 29 19 26 68 87 77 81 90 74 87
6 6 6 10 13 16 23 26 29 29 39 39 39 45 48 55 61 77 87 87 84 81 81 81 74 68 61 65 65 61 74 94 39 6 23 26 90 84 81 87 84 84 90
0 6 6 6 6 6 6 13 16 19 19 23 26 32 32 45 42 58 58 81 90 84 77 84 84 81 74 74 71 74 94 81 35 16 16 29 94 97 84 81 87 87 81
0 0 3 0 0 0 3 0 0 3 13 16 19 26 29 10 6 13 35 42 65 74 84 77 84 81 74 74 74 90 97 48 13 6 10 55 97 94 74 84 87 81 84
0 0 0 0 0 0 0 0 0 0 0 0 3 0 3 3 3 6 10 19 39 48 58 71 81 81 74 52 42 77 55 26 6 0 13 81 97 100 90 90 81 87 81
0 0 0 0 0 0 0 0 0 0 0 0 0 0 0 0 0 3 0 3 3 16 26 29 39 35 19 23 0 0 3 0 3 0 6 97 100 100 97 90 87 81 74
0 0 0 0 0 0 0 0 0 0 0 0 0 0 0 0 0 0 0 0 0 3 3 3 3 0 0 0 0 0 0 0 0 0 3 97 97 100 100 100 94 94 81
0 0 0 0 0 0 0 0 0 0 0 0 0 0 0 0 0 0 0 0 0 0 0 3 0 0 0 0 0 0 0 0 0 0 0 84 100 100 100 100 100 97 87
0 0 0 0 0 0 0 0 0 0 0 0 0 0 0 0 0 0 0 0 0 0 0 0 0 0 0 0 0 0 0 0 0 0 0 29 87 100 100 100 100 100 94
0 0 0 0 0 0 0 0 0 0 0 0 0 0 0 0 0 0 0 0 0 0 0 0 0 0 0 0 0 0 0 0 0 0 0 0 19 84 94 100 100 100 100
0 0 0 0 0 0 0 0 0 0 0 0 0 0 0 0 0 0 0 0 0 0 0 0 0 0 0 0 0 0 0 0 0 0 0 0 0 10 74 94 97 100 100
0 0 0 0 0 0 0 0 0 0 0 0 0 0 0 0 0 0 0 0 0 0 0 0 0 0 0 0 0 0 0 0 0 0 0 0 0 0 6 52 84 97 100
0 0 0 0 0 0 0 0 0 0 0 0 0 0 0 0 0 0 0 0 0 0 0 0 0 0 0 0 0 0 0 0 0 0 0 0 0 0 0 3 23 65 97
0 0 0 0 0 0 0 0 0 0 0 0 0 0 0 0 0 0 0 0 0 0 0 0 0 0 0 0 0 0 0 0 0 0 0 0 0 0 0 0 3 10 32
0 0 0 0 0 0 0 0 0 0 0 0 0 0 0 0 0 0 0 0 0 0 0 0 0 0 0 0 0 0 0 0 0 0 0 0 0 0 0 0 0 0 3
0 0 0 0 0 0 0 0 0 0 0 0 0 0 0 0 0 0 0 0 0 0 0 0 0 0 0 0 0 0 0 0 0 0 0 0 0 0 0 0 0 0 0
0 0 0 0 0 0 0 0 0 0 0 0 0 0 0 0 0 0 0 0 0 0 0 0 0 0 0 0 0 0 0 0 0 0 0 0 0 0 0 0 0 0 0
0 0 0 0 0 0 0 0 0 0 0 0 0 0 0 0 0 0 0 0 0 0 0 0 0 0 0 0 0 0 0 0 0 0 0 0 0 0 0 0 0 0 0
0 0 0 0 0 0 0 0 0 0 0 0 0 0 0 0 0 0 0 0 0 0 0 0 0 0 0 0 0 0 0 0 0 0 0 0 0 0 0 0 0 0 0

GEFSSE_con_cape1000_078.txt.gz
Probability
3 13 77 90 90 90 94 94 97 97 97 94 94 94 97 100 100 100 100 90 87 87 87 90 94 94 94 97 97 94 90 94 97 90 94 97 94 94 100 100 100 100 94
3 32 77 81 90 94 90 87 84 84 87 84 84 87 97 100 100 100 94 87 84 90 87 84 90 90 94 94 97 94 90 90 94 90 90 90 90 97 97 100 100 100 97
26 55 68 71 77 77 84 84 84 84 87 81 84 87 90 100 100 100 100 97 87 81 74 81 81 84 90 90 90 84 90 87 90 90 94 81 77 90 90 90 97 94 94
32 48 48 68 71 71 74 77 77 77 81 84 87 87 90 94 97 97 100 94 81 84 84 77 81 74 74 81 74 77 84 84 84 84 58 58 71 81 84 87 97 97 90
39 42 45 65 65 68 65 61 65 71 74 81 87 90 90 90 94 100 100 94 90 87 84 84 84 77 74 65 68 77 81 84 84 61 35 35 45 87 81 87 90 90 94
23 26 29 55 52 58 61 52 52 55 58 68 77 84 87 87 90 94 97 97 90 81 81 81 74 68 71 68 71 74 77 68 55 19 19 32 39 77 81 87 90 94 87
10 16 16 39 35 39 39 42 42 45 39 45 48 58 68 84 84 81 81 87 84 84 84 84 71 68 65 65 71 65 74 65 19 6 6 23 42 81 77 84 84 81 84
6 6 10 19 13 13 16 23 19 29 32 39 39 45 55 58 58 74 81 74 84 84 77 81 81 77 65 71 65 65 74 74 35 19 16 16 52 90 71 81 81 81 87
3 3 3 3 3 6 10 6 10 13 13 23 26 29 39 42 45 55 68 77 74 77 81 81 74 81 71 68 65 65 68 84 16 10 16 19 48 84 74 77 87 81 87
0 3 0 0 0 0 0 0 0 0 0 10 13 19 23 29 23 39 45 35 58 68 68 68 71 65 68 65 65 68 77 71 23 10 10 19 65 81 81 77 84 84 87
0 0 0 0 0 0 0 0 0 0 0 0 3 3 6 3 3 3 16 32 35 42 58 61 55 52 71 65 65 61 71 35 13 0 6 23 65 77 81 71 84 87 87
0 0 0 0 0 0 0 0 0 0 0 0 0 0 0 0 0 3 6 19 23 26 32 48 55 45 48 29 32 48 32 19 6 0 3 42 77 77 74 77 87 84 84
0 0 0 0 0 0 0 0 0 0 0 0 0 0 0 0 0 3 3 3 3 3 3 6 19 23 10 16 10 13 10 3 3 0 0 52 87 81 74 84 90 87 84
0 0 0 0 0 0 0 0 0 0 0 0 0 0 0 0 0 0 0 0 0 0 0 0 0 6 3 0 0 0 3 3 3 0 0 23 74 77 81 84 87 84 81
0 0 0 0 0 0 0 0 0 0 0 0 0 0 0 0 0 0 0 0 0 0 0 0 0 0 0 0 0 0 0 0 0 0 0 6 65 94 90 87 90 84 84
0 0 0 0 0 0 0 0 0 0 0 0 0 0 0 0 0 0 0 0 0 0 0 0 0 0 0 0 0 0 0 0 0 0 0 0 29 74 97 97 94 87 87
0 0 0 0 0 0 0 0 0 0 0 0 0 0 0 0 0 0 0 0 0 0 0 0 0 0 0 0 0 0 0 0 0 0 0 0 0 26 71 100 100 97 97
0 0 0 0 0 0 0 0 0 0 0 0 0 0 0 0 0 0 0 0 0 0 0 0 0 0 0 0 0 0 0 0 0 0 0 0 0 0 16 71 87 97 97
0 0 0 0 0 0 0 0 0 0 0 0 0 0 0 0 0 0 0 0 0 0 0 0 0 0 0 0 0 0 0 0 0 0 0 0 0 0 0 19 68 81 100
0 0 0 0 0 0 0 0 0 0 0 0 0 0 0 0 0 0 0 0 0 0 0 0 0 0 0 0 0 0 0 0 0 0 0 0 0 0 0 3 13 19 84
0 0 0 0 0 0 0 0 0 0 0 0 0 0 0 0 0 0 0 0 0 0 0 0 0 0 0 0 0 0 0 0 0 0 0 0 0 0 0 0 0 0 10
0 0 0 0 0 0 0 0 0 0 0 0 0 0 0 0 0 0 0 0 0 0 0 0 0 0 0 0 0 0 0 0 0 0 0 0 0 0 0 0 0 0 0
0 0 0 0 0 0 0 0 0 0 0 0 0 0 0 0 0 0 0 0 0 0 0 0 0 0 0 0 0 0 0 0 0 0 0 0 0 0 0 0 0 0 0
0 0 0 0 0 0 0 0 0 0 0 0 0 0 0 0 0 0 0 0 0 0 0 0 0 0 0 0 0 0 0 0 0 0 0 0 0 0 0 0 0 0 0
0 0 0 0 0 0 0 0 0 0 0 0 0 0 0 0 0 0 0 0 0 0 0 0 0 0 0 0 0 0 0 0 0 0 0 0 0 0 0 0 0 0 0
0 0 0 0 0 0 0 0 0 0 0 0 0 0 0 0 0 0 0 0 0 0 0 0 0 0 0 0 0 0 0 0 0 0 0 0 0 0 0 0 0 0 0

GEFSSE_con_cape1000_084.txt.gz
Probability
0 10 61 65 58 61 58 61 77 84 87 84 84 87 87 94 94 100 94 90 87 90 90 90 94 97 94 97 90 87 87 90 94 97 94 87 94 90 100 94 100 94 94
0 13 58 58 48 52 55 61 74 74 74 77 81 81 87 94 94 97 100 97 97 87 84 87 84 81 87 87 90 84 87 90 97 94 90 94 87 90 90 94 94 94 84
6 13 16 45 32 32 42 42 48 61 61 71 71 77 87 87 94 94 97 97 94 87 87 84 87 84 77 77 87 77 87 87 94 97 90 97 90 87 81 90 90 81 90
6 13 10 29 26 26 35 39 39 42 45 61 65 81 81 84 90 90 90 90 87 84 87 84 87 84 74 68 65 74 81 81 84 87 87 71 87 84 81 81 90 84 87
10 3 16 29 23 29 29 26 29 32 39 45 52 61 74 81 81 81 81 87 84 81 81 81 84 84 84 74 65 68 77 71 74 71 81 81 94 90 74 87 87 84 87
6 3 10 32 26 29 32 32 29 26 26 32 32 35 45 55 65 68 71 77 77 81 84 74 71 68 61 58 65 61 74 71 65 68 77 77 77 90 71 81 90 90 81
3 0 0 19 23 16 13 13 13 16 16 26 39 48 52 55 58 58 58 65 65 71 77 71 68 71 68 68 68 68 68 65 55 68 61 68 77 87 77 77 87 84 77
3 3 6 10 10 10 10 10 10 10 6 16 13 19 32 42 45 42 48 58 58 55 68 74 68 65 55 52 58 68 58 71 29 35 52 48 77 81 77 68 71 81 74
6 3 0 0 6 10 6 3 3 3 3 3 6 6 23 26 29 39 35 45 52 61 55 65 68 58 48 52 48 48 58 65 42 48 29 42 74 65 74 68 68 71 81
3 3 0 0 0 0 0 0 0 0 0 0 0 3 13 16 16 26 26 29 29 39 42 42 42 52 48 45 48 39 61 39 29 26 35 55 61 65 84 68 71 74 74
0 0 0 3 3 0 0 0 0 0 0 0 0 0 3 10 13 16 10 16 13 29 35 39 39 32 32 32 26 32 42 29 26 35 39 42 42 61 81 71 68 74 77
0 0 0 0 0 0 0 0 0 0 0 0 0 0 6 3 6 0 6 10 16 23 26 35 39 23 32 32 19 29 16 23 19 26 35 45 45 61 77 65 68 68 68
0 0 0 0 0 0 0 0 0 0 0 0 0 0 6 6 3 3 13 10 13 16 23 29 32 26 23 26 23 19 13 16 23 13 16 45 45 61 65 55 68 71 65
0 0 0 0 0 0 0 0 0 0 0 0 0 0 0 3 3 6 16 13 13 26 23 39 39 19 10 10 6 10 6 19 19 23 45 35 45 68 65 65 65 68 61
0 0 0 0 0 0 0 0 0 0 0 0 0 0 0 0 3 3 10 23 6 10 10 23 26 13 10 13 6 0 3 10 10 13 29 39 32 55 71 65 68 71 61
0 0 0 0 0 0 0 0 0 0 0 0 0 0 0 0 0 0 3 23 6 6 10 10 6 16 19 26 13 6 10 6 13 26 26 48 29 45 61 74 68 68 71
0 0 0 0 0 0 0 0 0 0 0 0 0 0 0 0 0 0 3 16 26 6 6 10 10 16 13 10 23 16 10 10 13 6 13 42 45 16 39 71 87 77 77
0 0 0 0 0 0 0 0 0 0 0 0 0 3 0 0 0 6 6 13 19 16 10 10 6 6 13 16 26 19 6 19 10 13 19 32 42 35 39 61 71 87 87
0 0 0 0 0 0 0 0 0 0 0 3 3 3 0 3 3 3 6 13 6 13 13 3 10 6 6 6 13 19 10 13 10 6 6 10 26 35 52 39 58 74 84
0 0 0 0 0 0 0 0 0 3 0 3 3 3 3 3 0 3 10 3 3 6 13 0 3 6 3 3 0 0 10 13 13 3 10 13 13 23 35 35 52 48 71
0 0 0 0 0 0 0 0 0 0 0 0 0 0 3 3 0 6 10 3 6 10 6 0 0 0 3 0 0 3 0 0 0 6 6 10 6 19 26 35 45 48 65
0 0 0 0 0 0 0 0 0 0 0 0 0 0 0 3 3 0 0 0 3 10 6 3 6 10 3 3 0 0 0 3 0 0 6 16 0 10 6 10 35 32 39
0 0 0 0 0 0 0 0 0 0 0 0 0 0 0 0 3 0 3 3 0 0 6 6 3 3 6 0 0 0 0 0 6 0 3 10 6 23 13 10 13 19 29
0 0 0 0 0 0 0 0 0 0 0 0 0 0 0 0 0 3 0 0 0 0 3 0 0 0 0 0 0 0 0 0 3 3 0 3 6 6 19 6 10 6 10
0 0 0 0 0 0 0 0 0 0 0 0 0 0 0 0 0 0 0 0 3 0 0 0 0 0 0 0 0 0 0 0 0 3 0 3 10 10 10 13 23 19 10
0 0 0 0 0 0 0 0 0 0 0 0 0 0 0 0 0 0 0 0 0 0 0 0 0 0 0 0 0 0 0 0 0 0 0 3 6 6 3 6 16 23 16

GEFSSE_con_cape1000_090.txt.gz
Probability
29 32 61 48 42 42 48 45 55 45 55 48 48 65 71 74 87 90 87 81 81 77 74 81 81 81 81 94 90 90 97 94 97 97 94 84 87 90 90 97 97 97 90
29 29 65 48 39 29 39 35 35 32 39 39 45 58 61 65 77 97 94 87 81 74 74 81 77 77 77 74 81 84 84 97 97 97 90 87 84 87 87 90 94 90 90
26 26 39 45 32 26 26 23 26 26 26 35 42 45 58 68 71 81 87 90 81 74 68 74 77 77 77 74 74 77 81 81 90 94 100 100 100 100 77 81 87 84 81
13 16 19 42 29 29 19 19 19 16 16 29 35 39 39 48 58 71 77 81 81 81 81 81 77 68 61 74 71 68 71 74 90 94 87 84 90 87 87 81 81 81 84
19 19 29 39 23 19 10 13 13 16 13 13 13 23 32 35 42 58 65 68 74 71 71 68 74 61 61 58 68 68 61 81 97 94 68 84 87 87 87 84 84 68 71
16 16 23 35 23 16 13 13 10 6 6 13 19 23 29 35 35 45 48 55 61 68 61 65 68 65 61 48 61 61 61 71 87 61 81 71 81 87 81 74 74 81 74
3 0 6 19 19 13 13 6 3 3 3 3 6 6 19 19 26 29 45 45 65 71 52 61 65 61 45 45 42 55 55 68 58 61 65 77 84 90 71 65 68 61 77
0 0 0 19 16 10 10 6 6 0 3 0 3 3 10 13 19 23 35 42 45 45 61 61 65 48 45 42 48 55 55 55 35 39 48 74 87 81 68 65 61 68 65
0 0 0 3 6 16 16 3 0 0 0 0 0 3 6 16 19 23 39 35 32 45 35 45 58 58 55 42 42 39 48 65 39 19 32 48 87 81 61 68 65 65 74
0 0 0 0 0 3 3 3 0 0 0 0 0 3 6 6 19 23 23 39 39 39 39 45 48 45 48 55 39 35 48 58 23 10 26 68 94 74 58 55 58 58 68
0 0 0 0 0 0 0 0 0 0 0 0 0 0 6 0 3 16 32 29 32 35 42 35 45 48 58 48 55 52 45 13 10 19 42 74 84 71 65 61 68 65 68
0 0 0 0 0 0 0 0 0 0 0 0 0 0 0 0 0 0 13 26 29 39 35 35 45 48 45 26 42 52 6 3 0 13 45 84 77 68 65 65 74 74 65
0 0 0 0 0 0 0 0 0 0 0 0 0 0 0 0 0 0 3 23 29 23 10 32 32 29 16 10 19 6 3 0 0 6 42 90 74 61 65 61 68 71 65
0 0 0 0 0 0 0 0 0 0 0 0 0 0 0 0 0 3 3 3 10 13 16 16 13 19 13 6 3 3 3 0 6 3 29 81 71 55 58 58 61 68 74
0 0 0 0 0 0 0 0 0 0 0 0 0 0 0 0 0 0 3 3 6 6 6 10 0 10 10 0 3 0 0 3 3 6 10 68 74 65 55 58 68 68 71
0 0 0 0 0 0 0 0 0 0 0 0 0 0 0 0 0 0 0 0 6 6 6 6 3 3 10 10 3 3 3 3 3 3 0 45 68 68 77 74 77 74 68
0 0 0 0 0 0 0 0 0 0 0 0 0 0 0 0 0 0 0 3 6 6 10 10 0 3 3 10 3 0 3 0 0 3 6 3 6 42 71 81 74 71 74
0 0 0 0 0 0 0 0 0 0 0 0 0 0 0 0 0 0 0 3 13 10 6 3 6 3 3 3 6 0 3 0 0 0 0 3 0 0 26 71 77 68 74
0 0 0 0 0 0 0 0 0 0 0 0 0 0 0 3 3 3 3 6 3 3 3 3 3 0 3 3 10 0 0 0 0 0 0 0 0 10 0 19 74 77 77
0 0 0 0 0 0 0 0 0 0 0 0 0 0 0 3 3 3 3 3 3 3 3 3 3 0 0 0 0 0 0 0 0 0 0 0 0 0 10 0 10 19 68
0 0 0 0 0 0 0 0 0 0 0 0 0 0 0 0 3 3 3 3 3 3 3 3 0 0 0 0 0 0 0 0 0 0 0 0 0 0 0 0 3 10 26
0 0 0 0 0 0 0 0 0 0 0 0 0 0 0 3 3 3 3 3 3 6 3 0 0 3 0 0 0 0 0 0 0 0 0 0 0 0 0 3 3 6 0
0 0 0 0 0 0 0 0 0 0 0 0 0 0 3 3 3 3 3 0 0 0 0 0 0 0 0 0 0 0 0 0 0 0 0 0 0 0 0 0 3 0 3
0 0 0 0 0 0 0 0 0 0 0 0 0 0 0 0 0 3 3 0 0 0 0 0 0 0 0 0 0 0 0 0 0 0 0 0 0 0 0 0 0 0 0
0 0 0 0 0 0 0 0 0 0 0 0 0 0 0 0 0 0 0 0 0 3 3 0 0 0 0 0 0 0 0 0 0 0 0 0 0 0 0 0 0 0 0
0 0 0 0 0 0 0 0 0 0 0 0 0 0 0 0 0 0 0 0 0 0 0 0 0 0 0 0 0 0 0 0 0 0 0 0 0 0 0 0 0 0 0

GEFSSE_con_cape1000_096.txt.gz
Probability
10 35 74 65 58 65 58 68 68 71 77 71 68 61 65 71 84 87 84 87 84 84 74 68 77 74 68 71 81 81 81 84 81 90 90 81 87 90 90 90 84 84 84
13 45 77 58 55 52 52 58 58 48 45 52 55 58 58 61 74 81 84 81 77 77 77 84 74 74 71 71 74 71 61 65 74 81 81 81 81 90 94 87 84 87 90
13 48 58 55 45 42 45 48 42 39 42 42 42 42 55 61 65 68 81 84 74 87 77 84 81 77 74 68 65 61 52 61 68 77 94 55 74 97 87 81 77 81 90
16 23 39 55 48 48 48 42 35 32 35 39 39 39 42 45 45 52 65 74 77 74 81 81 74 74 71 71 68 55 55 61 65 81 45 48 58 94 94 90 81 77 87
13 16 42 48 42 42 32 29 23 23 19 13 23 23 23 39 39 42 45 48 58 74 68 77 81 68 68 68 58 55 45 48 55 55 26 26 32 84 84 84 87 77 90
6 16 29 39 26 26 23 19 13 10 10 10 13 16 19 16 23 42 45 48 55 52 52 68 68 68 65 52 55 58 52 61 55 16 16 6 13 81 77 84 87 77 84
6 13 19 29 29 19 19 16 10 6 10 6 3 6 6 10 13 19 29 35 45 52 61 61 71 65 68 55 55 61 61 65 39 6 6 3 29 87 81 81 84 87 87
0 6 26 32 29 23 23 10 3 3 3 3 3 3 3 3 13 13 23 23 29 42 48 55 61 58 68 61 61 61 58 74 26 10 3 13 58 87 77 77 77 87 81
0 0 10 16 23 23 19 10 3 3 3 3 0 3 3 6 6 13 23 19 29 39 39 42 42 58 58 58 52 52 65 68 29 3 6 6 74 87 81 87 84 90 81
0 0 3 3 3 3 6 10 3 3 0 0 0 0 6 6 6 10 16 19 29 32 39 42 39 52 55 55 55 55 58 55 23 10 6 6 77 81 84 90 90 90 84
0 0 0 3 0 0 0 3 0 0 0 0 0 0 3 0 0 0 6 13 26 26 26 39 45 52 58 58 61 61 61 13 10 6 0 45 77 84 84 94 97 84 77
0 0 0 0 0 0 0 0 0 0 0 0 0 0 0 0 0 0 0 13 19 16 32 32 32 35 39 23 23 55 19 6 3 0 3 68 84 77 84 90 94 87 81
0 0 0 0 0 0 0 0 0 0 0 0 0 0 0 0 0 0 0 0 3 10 10 10 6 10 10 3 0 3 6 3 3 0 13 68 81 77 77 77 87 94 87
0 0 0 0 0 0 0 0 0 0 0 0 0 0 0 0 0 0 0 0 0 0 0 0 0 0 0 0 0 0 3 0 0 0 3 48 71 71 71 81 84 94 87
0 0 0 0 0 0 0 0 0 0 0 0 0 0 0 0 0 0 0 0 0 0 0 0 0 0 0 0 0 0 0 0 0 0 0 39 65 71 68 74 87 90 84
0 0 0 0 0 0 0 0 0 0 0 0 0 0 0 0 0 0 0 0 0 0 0 0 0 0 0 0 0 0 0 0 0 0 0 16 45 52 71 84 81 87 87
0 0 0 0 0 0 0 0 0 0 0 0 0 0 0 0 0 0 0 0 0 0 0 0 0 0 0 0 0 0 0 0 0 0 0 0 6 29 52 74 87 90 87
0 0 0 0 0 0 0 0 0 0 0 0 0 0 0 0 0 0 0 0 0 0 0 0 0 0 0 0 0 0 0 0 0 0 0 0 6 6 23 61 84 87 87
0 0 0 0 0 0 0 0 0 0 0 0 0 0 0 0 0 0 0 0 0 0 0 0 0 0 0 0 0 0 0 0 0 0 0 0 0 3 10 19 68 71 84
0 0 0 0 0 0 0 0 0 0 0 0 0 0 0 0 0 0 0 0 0 0 0 0 0 0 0 0 0 0 0 0 0 0 0 0 0 0 6 13 16 29 65
0 0 0 0 0 0 0 0 0 0 0 0 0 0 0 0 0 0 0 0 0 0 0 0 0 0 0 0 0 0 0 0 0 0 0 0 0 0 0 3 6 3 23
0 0 0 0 0 0 0 0 0 0 0 0 0 0 0 0 0 0 0 0 0 0 0 0 0 0 0 0 0 0 0 0 0 0 0 0 0 0 0 0 0 0 3
0 0 0 0 0 0 0 0 0 0 0 0 0 0 0 0 0 0 0 0 0 0 0 0 0 0 0 0 0 0 0 0 0 0 0 0 0 0 0 0 0 0 0
0 0 0 0 0 0 0 0 0 0 0 0 0 0 0 0 0 0 0 0 0 0 0 0 0 0 0 0 0 0 0 0 0 0 0 0 0 0 0 0 0 0 0
0 0 0 0 0 0 0 0 0 0 0 0 0 0 0 0 0 0 0 0 0 0 0 0 0 0 0 0 0 0 0 0 0 0 0 0 0 0 0 0 0 0 0
0 0 0 0 0 0 0 0 0 0 0 0 0 0 0 0 0 0 0 0 0 0 0 0 0 0 0 0 0 0 0 0 0 0 0 0 0 0 0 0 0 0 0

GEFSSE_con_cape1000_102.txt.gz
Probability
0 6 52 45 45 52 52 61 65 65 68 71 65 58 74 74 84 87 84 87 87 81 84 77 81 77 84 77 81 87 90 94 84 87 77 81 87 90 94 87 71 81 84
0 13 58 52 45 45 52 58 58 55 55 52 52 58 65 71 74 77 84 81 81 87 84 87 81 81 77 81 77 84 77 87 84 87 84 77 84 87 87 77 74 71 81
10 26 48 42 52 52 48 48 48 42 35 39 45 45 55 61 61 68 71 81 81 94 94 87 87 84 77 77 74 81 77 74 77 84 94 45 52 87 90 77 74 71 77
19 26 35 32 32 32 39 39 42 32 32 32 35 35 39 45 48 52 55 58 68 68 84 90 87 87 84 77 77 84 77 71 81 77 35 35 39 84 87 71 74 74 84
16 19 19 35 29 35 39 35 39 35 32 29 23 26 29 39 48 48 45 48 58 65 65 77 87 87 87 84 87 84 77 71 68 39 16 13 16 65 87 81 71 74 84
13 13 16 29 23 26 23 26 19 16 10 10 16 19 23 26 29 29 42 45 48 55 65 61 81 77 81 77 71 74 81 71 52 13 6 10 13 65 94 90 90 81 81
3 13 19 29 16 16 16 13 13 6 3 3 3 3 3 6 13 16 26 29 35 42 58 65 61 68 71 68 71 74 77 77 35 13 6 6 13 77 81 87 97 90 81
3 10 13 23 19 19 13 13 10 3 0 0 0 3 3 3 6 16 16 19 26 39 39 52 52 55 61 68 68 68 65 81 39 19 6 6 26 81 77 77 90 90 90
3 3 6 10 13 16 16 6 6 0 0 0 0 0 0 3 6 6 16 16 19 32 26 29 45 52 58 55 52 61 58 84 26 6 6 3 35 74 81 87 94 94 84
0 3 3 3 6 6 6 10 6 0 0 0 0 0 0 3 3 6 10 10 16 16 23 29 32 45 58 58 58 45 55 68 19 3 3 0 55 68 84 84 90 97 90
0 0 0 0 0 0 0 3 3 3 0 3 0 0 0 0 0 0 0 6 6 10 19 16 23 32 39 58 58 58 45 19 3 3 3 10 52 61 74 84 90 90 87
0 0 0 0 0 0 0 0 0 0 0 0 0 0 0 0 0 0 0 3 3 6 13 16 16 16 19 10 13 29 6 3 3 3 3 23 55 58 71 77 87 87 87
0 0 0 0 0 0 0 0 0 0 0 0 0 0 0 0 0 0 0 0 0 0 0 3 3 0 0 0 3 0 0 3 3 3 0 26 58 58 65 77 84 87 87
0 0 0 0 0 0 0 0 0 0 0 0 0 0 0 0 0 0 0 0 0 0 0 0 0 0 0 0 0 0 0 0 3 0 0 26 61 65 58 68 71 77 84
0 0 0 0 0 0 0 0 0 0 0 0 0 0 0 0 0 0 0 0 0 0 0 0 0 0 0 0 0 0 0 0 0 0 0 16 45 61 55 55 65 74 84
0 0 0 0 0 0 0 0 0 0 0 0 0 0 0 0 0 0 0 0 0 0 0 0 0 0 0 0 0 0 0 0 0 0 0 0 10 32 52 52 55 61 74
0 0 0 0 0 0 0 0 0 0 0 0 0 0 0 0 0 0 0 0 0 0 0 0 0 0 0 0 0 0 0 0 0 0 0 0 0 6 26 42 52 61 68
0 0 0 0 0 0 0 0 0 0 0 0 0 0 0 0 0 0 0 0 0 0 0 0 0 0 0 0 0 0 0 0 0 0 0 0 0 0 10 19 48 61 68
0 0 0 0 0 0 0 0 0 0 0 0 0 0 0 0 0 0 0 0 0 0 0 0 0 0 0 0 0 0 0 0 0 0 0 0 0 0 3 3 23 35 68
0 0 0 0 0 0 0 0 0 0 0 0 0 0 0 0 0 0 0 0 0 0 0 0 0 0 0 0 0 0 0 0 0 0 0 0 0 0 6 3 6 10 39
0 0 0 0 0 0 0 0 0 0 0 0 0 0 0 0 0 0 0 0 0 0 0 0 0 0 0 0 0 0 0 0 0 0 0 0 0 0 0 3 6 6 10
0 0 0 0 0 0 0 0 0 0 0 0 0 0 0 0 0 0 0 0 0 0 0 0 0 0 0 0 0 0 0 0 0 0 0 0 0 0 0 0 0 3 6
0 0 0 0 0 0 0 0 0 0 0 0 0 0 0 0 0 0 0 0 0 0 0 0 0 0 0 0 0 0 0 0 0 0 0 0 0 0 0 0 0 0 0
0 0 0 0 0 0 0 0 0 0 0 0 0 0 0 0 0 0 0 0 0 0 0 0 0 0 0 0 0 0 0 0 0 0 0 0 0 0 0 0 0 0 0
0 0 0 0 0 0 0 0 0 0 0 0 0 0 0 0 0 0 0 0 0 0 0 0 0 0 0 0 0 0 0 0 0 0 0 0 0 0 0 0 0 0 0
0 0 0 0 0 0 0 0 0 0 0 0 0 0 0 0 0 0 0 0 0 0 0 0 0 0 0 0 0 0 0 0 0 0 0 0 0 0 0 0 0 0 0

GEFSSE_con_cape1000_108.txt.gz
Probability
6 23 39 35 39 32 32 52 55 58 61 58 68 68 65 65 74 81 84 84 87 94 97 97 90 84 84 87 87 94 90 94 97 94 84 84 84 90 81 74 81 77 87
0 16 39 35 35 29 32 45 52 52 48 48 42 52 52 55 61 71 71 74 77 87 90 90 90 90 87 84 87 94 90 94 90 90 87 87 84 71 77 77 77 90 77
3 13 16 29 29 23 29 32 32 32 45 45 48 48 45 45 52 55 55 61 65 71 77 97 94 87 84 84 81 81 90 90 90 87 90 87 84 71 77 71 74 74 77
0 10 13 26 26 26 29 29 26 29 32 29 19 29 32 35 42 48 48 52 52 55 55 71 77 81 84 87 90 87 84 81 90 81 77 65 81 77 77 74 71 77 77
3 3 3 23 16 16 19 23 13 19 16 16 19 19 23 26 26 35 35 39 42 58 58 55 71 81 81 84 84 81 77 84 77 74 84 81 87 87 87 68 77 74 77
3 3 3 16 13 10 10 16 13 10 6 6 6 6 13 16 19 16 26 32 42 45 52 61 65 71 74 74 74 77 77 65 65 74 81 71 74 84 81 71 68 77 77
3 3 3 16 10 10 10 13 6 3 3 3 3 3 6 6 10 10 10 23 32 35 52 52 65 65 77 74 77 74 74 71 48 68 65 68 74 71 74 68 65 81 68
0 0 3 16 13 10 6 6 3 0 0 0 0 0 0 3 6 6 13 13 23 26 32 42 52 55 52 68 71 71 65 74 35 26 45 61 65 68 65 61 61 84 77
0 0 0 3 0 6 6 6 0 0 0 0 0 0 0 0 3 3 6 10 13 19 19 23 26 29 48 52 52 58 65 71 55 55 19 42 52 61 68 58 74 81 77
0 0 0 0 0 0 0 6 3 0 0 0 0 0 0 0 3 3 3 3 3 3 6 19 26 23 29 42 52 58 58 61 48 32 26 35 45 58 58 61 71 71 68
0 0 0 0 0 0 0 0 3 3 0 0 0 0 0 0 0 0 0 0 0 0 0 13 19 19 26 32 42 35 45 42 39 39 35 39 29 48 48 55 65 74 68
0 0 0 0 0 0 0 0 0 0 0 0 0 0 0 0 0 0 0 0 0 0 0 6 3 10 10 19 19 29 26 29 35 19 19 29 29 45 42 45 65 71 71
0 0 0 0 0 0 0 0 0 0 0 0 0 0 0 0 0 0 0 3 3 0 3 0 0 10 10 6 3 3 19 16 23 16 26 13 23 39 32 45 58 58 58
0 0 0 0 0 0 0 0 0 0 0 0 0 0 0 0 0 0 0 3 3 3 6 3 3 0 6 3 3 0 10 23 19 19 42 19 26 42 29 39 52 55 48
0 0 0 0 0 0 0 0 0 0 0 0 0 0 0 0 0 0 0 3 3 3 0 0 0 3 3 3 0 0 3 13 16 13 32 23 26 42 23 42 48 45 48
0 0 0 0 0 0 0 0 0 0 0 0 0 0 0 0 0 0 0 3 3 3 0 0 0 3 3 3 0 3 16 13 13 16 26 29 19 26 32 29 42 42 35
0 0 0 0 0 0 0 0 0 0 0 0 0 0 0 0 0 0 0 0 3 3 3 0 0 3 0 3 10 6 16 10 13 13 10 23 23 19 16 42 48 39 29
3 3 0 0 0 0 0 0 0 0 0 0 0 0 0 0 0 0 0 3 3 3 3 0 0 0 3 3 10 10 13 23 6 3 10 10 13 3 6 23 48 45 42
3 3 0 0 0 0 0 0 0 0 0 0 0 0 0 0 0 0 0 0 3 3 0 0 0 3 13 10 10 19 13 16 13 6 6 3 3 16 16 13 23 29 45
3 3 0 0 0 0 0 0 0 0 0 0 0 0 0 0 0 0 3 0 0 3 3 0 0 6 6 16 0 10 19 10 6 13 3 0 3 6 6 10 23 13 26
3 3 0 0 0 0 0 0 0 0 0 0 0 0 0 0 0 0 0 3 3 3 0 0 3 3 10 10 10 16 6 0 0 16 16 16 13 10 13 13 29 23 35
3 3 0 0 0 0 0 0 0 0 0 0 0 0 0 0 0 0 3 3 0 6 3 6 6 6 6 6 10 10 0 0 0 0 13 16 6 13 13 10 13 23 19
0 0 0 0 0 0 0 0 0 0 0 0 0 0 0 0 0 0 0 0 0 0 3 6 10 6 10 19 13 0 0 0 13 10 10 0 3 13 13 10 6 6 3
3 3 0 0 0 0 0 0 0 0 0 0 0 0 0 0 0 3 3 0 0 0 3 3 0 6 6 13 16 13 3 3 3 10 6 3 3 6 10 0 10 6 3
6 6 3 0 0 0 0 0 0 0 0 0 0 0 0 0 0 0 3 3 0 0 3 3 3 10 10 10 13 13 10 13 0 3 3 6 3 0 3 6 10 16 19
6 6 3 0 0 0 0 0 0 0 0 0 0 0 0 0 0 0 0 3 0 0 0 6 6 3 10 10 10 16 10 13 6 10 6 10 6 3 3 6 0 13 23

GEFSSE_con_cape1000_114.txt.gz
Probability
42 29 55 48 42 55 55 55 58 58 61 55 55 55 61 61 71 74 74 71 84 81 81 81 84 87 94 90 87 90 97 97 94 94 97 94 87 84 90 87 90 94 84
26 29 52 52 39 45 48 45 48 48 52 52 39 48 45 48 48 55 58 61 58 68 74 84 84 87 94 87 81 84 84 87 90 94 97 90 94 84 74 77 90 94 84
19 16 32 52 42 39 32 45 45 35 35 35 35 26 29 35 42 42 42 52 52 55 58 58 74 77 87 87 87 84 74 77 84 94 100 90 97 90 74 74 84 77 81
10 13 16 35 29 26 26 32 35 29 23 23 23 23 26 32 35 35 35 45 52 55 58 61 58 68 77 81 84 87 77 81 84 94 87 90 84 90 77 77 77 71 81
6 6 13 26 19 19 19 19 10 16 16 13 19 19 16 16 23 23 23 26 35 45 52 55 58 61 71 77 81 84 81 77 84 87 74 81 74 84 74 68 77 81 87
10 3 3 23 19 13 13 13 6 10 13 10 13 13 10 10 6 13 16 16 26 32 45 52 55 61 65 65 74 77 74 68 71 74 71 71 90 87 77 74 74 77 74
3 3 3 13 10 10 10 0 3 3 3 3 3 3 3 3 6 6 10 13 16 19 26 39 45 52 55 48 71 71 65 71 61 58 58 55 81 81 65 68 71 71 74
3 3 3 10 13 13 3 3 3 3 0 0 0 3 0 3 6 6 3 6 10 10 16 19 32 42 52 52 45 55 55 74 55 48 52 68 84 81 61 55 58 61 71
0 0 0 0 6 10 6 0 0 0 0 0 0 0 0 0 3 6 6 6 3 6 10 13 19 26 29 35 39 48 55 81 52 39 35 68 84 81 58 45 55 61 68
0 0 0 0 0 0 3 6 0 0 0 0 0 0 0 0 0 0 3 3 3 3 0 3 6 23 26 32 35 52 58 68 26 23 48 68 87 74 55 61 52 55 55
0 0 0 0 0 0 0 0 3 6 3 0 0 0 0 0 0 3 0 3 3 0 0 3 6 13 26 32 48 61 55 6 10 16 52 84 68 68 55 52 55 55 52
0 0 0 0 0 0 0 0 0 0 0 0 0 0 0 0 0 0 0 0 0 3 10 6 13 16 26 6 23 71 19 6 10 16 61 87 65 55 52 48 58 58 48
0 0 0 0 0 0 0 0 0 0 0 0 0 0 0 0 0 0 0 0 0 3 3 3 3 0 3 10 10 6 6 0 16 23 52 77 61 52 48 45 55 65 48
0 0 0 0 0 0 0 0 0 0 0 0 0 0 0 0 0 0 0 0 3 0 0 0 0 0 3 3 0 3 3 6 23 32 45 77 61 42 32 39 61 61 58
0 0 0 0 0 0 0 0 0 0 0 0 0 0 0 0 0 0 3 3 0 0 0 0 0 0 0 3 3 3 3 6 13 26 23 74 58 45 42 42 55 61 52
0 0 0 0 0 0 0 0 0 0 0 0 0 0 0 0 0 0 0 0 0 0 0 0 0 0 0 0 3 0 0 3 3 16 16 32 55 48 55 45 48 52 52
0 0 0 0 0 0 0 0 0 0 0 0 0 0 0 0 0 0 0 0 3 0 0 0 0 0 0 3 3 0 3 6 3 10 13 16 16 35 45 52 42 52 58
0 0 0 0 0 0 0 0 0 0 0 0 0 0 0 0 0 0 0 0 0 3 3 0 0 0 0 0 6 6 3 3 6 10 10 10 3 3 23 29 39 45 55
0 0 0 0 0 0 0 0 0 0 0 0 0 0 0 0 0 0 0 0 0 3 3 0 0 0 0 0 0 3 6 3 10 3 0 0 6 6 0 6 19 35 52
0 0 0 0 0 0 0 0 0 0 0 0 0 0 0 0 0 0 0 0 0 0 0 3 0 3 0 0 0 0 0 0 0 0 0 0 0 3 3 0 0 6 42
3 0 0 0 0 0 0 0 0 0 0 0 0 0 0 0 0 0 0 0 0 0 0 0 0 0 0 0 0 0 0 0 0 0 0 0 0 0 0 3 3 3 6
3 3 0 0 0 0 0 0 0 0 0 0 0 0 0 0 0 0 0 0 0 0 0 3 0 3 0 0 0 0 0 0 0 3 3 3 0 0 0 3 3 3 0
6 3 0 0 0 0 0 0 0 0 0 0 0 0 0 0 0 0 0 0 0 0 0 3 0 3 3 0 0 0 0 0 0 0 0 0 0 3 0 3 3 3 6
6 0 0 0 0 0 0 0 0 0 0 0 0 0 0 0 0 0 0 0 0 0 0 0 3 3 3 3 0 0 0 0 0 0 0 0 0 0 0 0 0 0 0
6 0 0 0 0 0 0 0 0 0 0 0 0 0 0 0 0 0 0 0 0 0 0 0 0 0 6 0 0 0 0 0 0 0 0 0 0 0 0 3 0 0 0
10 10 10 3 0 3 0 0 0 0 0 0 0 0 0 0 0 0 0 0 0 0 0 0 0 0 3 0 0 0 0 0 0 0 0 0 0 0 0 0 0 0 0

GEFSSE_con_cape1000_120.txt.gz
Probability
19 32 65 68 68 74 77 77 81 74 74 68 71 71 74 71 71 74 74 74 77 71 81 81 77 77 77 77 81 81 77 81 84 87 90 84 84 77 84 84 81 90 77
19 42 65 68 61 68 71 68 68 68 68 58 58 65 68 58 58 58 61 65 68 58 61 65 77 84 81 81 81 74 71 71 77 87 87 84 81 74 84 81 81 84 81
23 32 48 58 58 65 61 65 61 52 52 48 42 42 48 55 52 45 52 55 58 58 58 55 68 68 77 81 84 81 71 71 84 84 90 77 81 77 74 77 77 77 74
19 19 26 55 61 61 55 52 39 35 35 32 32 35 32 32 32 32 35 45 52 52 55 52 61 58 61 74 81 77 81 81 87 84 55 58 65 74 77 68 65 68 77
10 13 32 45 45 48 45 35 26 23 23 19 19 23 23 26 26 26 26 29 32 39 39 45 48 58 65 61 65 68 71 77 81 65 39 32 42 81 74 65 68 74 77
3 6 26 35 32 23 26 16 16 16 19 16 16 16 16 19 16 16 19 16 16 16 23 39 42 45 48 55 61 65 61 74 58 42 32 32 48 81 71 68 71 74 71
0 6 13 26 29 23 23 16 13 6 10 13 13 13 13 13 13 13 10 13 13 16 16 23 32 42 39 45 52 48 65 68 42 23 26 32 48 87 74 68 74 71 65
0 3 6 23 19 23 26 13 6 6 10 6 6 3 6 6 10 10 10 3 6 6 6 13 32 26 29 35 42 45 52 68 35 13 19 35 68 81 68 65 65 68 71
0 0 3 6 6 16 13 6 3 0 0 0 0 0 0 0 6 3 3 3 3 3 3 3 6 19 23 29 32 42 52 71 35 13 10 35 68 74 68 65 65 68 74
0 0 3 6 6 6 3 3 3 3 0 3 0 0 0 0 0 0 3 3 3 0 3 3 0 6 19 32 29 39 61 65 23 6 6 35 77 65 61 68 65 61 65
0 0 3 3 3 3 0 0 3 3 3 3 3 0 0 0 0 0 0 6 3 3 3 0 6 10 16 26 29 42 52 10 6 0 6 39 71 74 68 71 58 61 65
0 0 0 3 3 3 0 0 0 0 0 0 0 0 0 0 0 0 0 6 6 3 6 3 16 10 3 3 6 10 10 0 0 0 13 65 74 77 65 61 61 58 68
0 0 0 0 0 0 0 0 0 0 0 0 0 0 0 0 0 0 0 0 0 0 0 0 0 0 0 0 0 0 0 0 0 0 13 77 77 71 55 55 58 58 65
0 0 0 0 0 0 0 0 0 0 0 0 0 0 0 0 0 0 0 0 0 0 0 0 0 0 0 0 0 0 0 0 0 0 13 74 77 65 55 55 52 55 58
0 0 0 0 0 0 0 0 0 0 0 0 0 0 0 0 0 0 0 0 0 0 0 0 0 0 0 0 0 0 0 0 0 3 10 52 81 61 52 52 48 52 52
0 0 0 0 0 0 0 0 0 0 0 0 0 0 0 0 0 0 0 0 0 0 0 0 0 0 0 0 0 0 0 0 0 0 3 13 52 58 58 55 42 42 52
0 0 0 0 0 0 0 0 0 0 0 0 0 0 0 0 0 0 0 0 0 0 0 0 0 0 0 0 0 0 0 0 0 0 0 0 6 32 45 55 61 61 48
0 0 0 0 0 0 0 0 0 0 0 0 0 0 0 0 0 0 0 0 0 0 0 0 0 0 0 0 0 0 0 0 0 0 0 0 0 3 23 42 42 52 48
0 0 0 0 0 0 0 0 0 0 0 0 0 0 0 0 0 0 0 0 0 0 0 0 0 0 0 0 0 0 0 0 0 0 0 0 0 0 0 13 26 39 45
0 0 0 0 0 0 0 0 0 0 0 0 0 0 0 0 0 0 0 0 0 0 0 0 0 0 0 0 0 0 0 0 0 0 0 0 0 0 0 0 6 13 32
0 0 0 0 0 0 0 0 0 0 0 0 0 0 0 0 0 0 0 0 0 0 0 0 0 0 0 0 0 0 0 0 0 0 0 0 0 0 0 0 0 0 10
0 0 0 0 0 0 0 0 0 0 0 0 0 0 0 0 0 0 0 0 0 0 0 0 0 0 0 0 0 0 0 0 0 0 0 0 0 0 0 0 0 0 0
0 0 0 0 0 0 0 0 0 0 0 0 0 0 0 0 0 0 0 0 0 0 0 0 0 0 0 0 0 0 0 0 0 0 0 0 0 0 0 0 0 0 0
0 0 0 0 0 0 0 0 0 0 0 0 0 0 0 0 0 0 0 0 0 0 0 0 0 0 0 0 0 0 0 0 0 0 0 0 0 0 0 0 0 0 0
0 0 0 0 0 0 0 0 0 0 0 0 0 0 0 0 0 0 0 0 0 0 0 0 0 0 0 0 0 0 0 0 0 0 0 0 0 0 0 0 0 0 0
0 0 0 0 0 0 0 0 0 0 0 0 0 0 0 0 0 0 0 0 0 0 0 0 0 0 0 0 0 0 0 0 0 0 0 0 0 0 0 0 0 0 0

GEFSSE_con_cape1000_126.txt.gz
Probability
0 10 55 55 61 71 74 68 68 71 68 68 65 68 71 71 61 68 61 65 61 61 68 74 81 81 71 74 81 81 81 84 90 87 94 87 87 84 81 77 81 71 61
3 16 52 48 52 58 71 65 65 65 61 61 58 48 45 48 48 55 52 58 58 58 58 61 71 77 81 77 81 81 84 90 84 87 87 90 87 84 77 77 74 74 71
13 26 35 45 45 55 65 52 55 48 48 52 45 45 42 39 42 45 45 52 52 52 61 61 68 68 74 81 84 81 87 90 90 90 90 68 71 84 81 71 71 74 65
6 13 26 39 42 35 35 42 35 32 32 32 39 39 32 35 35 39 32 35 32 35 42 52 58 65 71 74 87 84 87 90 90 90 39 48 52 81 77 74 68 65 65
3 6 26 35 26 26 35 23 16 19 23 19 19 13 19 19 23 26 29 29 32 32 35 39 48 45 65 65 68 71 81 84 84 45 35 29 32 68 81 74 71 71 65
0 10 19 26 23 19 16 16 10 13 10 13 13 10 13 19 23 23 23 19 16 19 23 26 39 42 45 48 61 68 74 71 55 13 16 19 39 71 90 77 71 68 58
0 10 13 23 19 23 10 10 10 6 10 10 13 10 10 10 13 3 6 6 13 13 13 26 29 32 32 35 48 52 61 74 23 6 10 13 26 81 90 74 71 68 61
0 3 6 19 16 13 6 6 6 3 3 3 6 6 6 10 6 6 10 10 6 6 10 13 19 19 23 29 35 45 42 61 29 10 6 10 48 84 74 74 74 68 74
0 0 3 0 10 10 10 3 6 3 3 3 3 3 3 3 6 6 6 3 3 3 6 6 13 13 13 19 32 32 39 61 29 10 16 13 42 74 74 81 71 68 71
0 0 0 0 0 0 0 3 3 3 0 0 0 0 3 0 0 0 3 3 0 0 0 0 0 6 10 13 23 35 42 35 6 3 6 13 55 68 65 77 71 61 65
0 0 0 0 0 0 0 0 3 0 0 0 0 0 0 0 0 0 0 6 0 0 10 10 13 6 3 6 10 16 13 0 0 3 6 26 55 71 65 61 65 61 58
0 0 0 0 0 0 0 0 0 0 0 0 0 0 0 0 0 0 0 10 6 6 0 6 3 0 0 0 0 6 0 0 0 0 6 45 58 61 55 61 65 65 61
0 0 0 0 0 0 0 0 0 0 0 0 0 0 0 0 0 0 0 0 0 0 0 0 0 0 0 0 0 0 0 0 0 0 6 48 61 48 42 48 61 58 55
0 0 0 0 0 0 0 0 0 0 0 0 0 0 0 0 0 0 0 0 0 0 0 0 0 0 0 0 0 0 0 0 0 0 0 48 68 52 35 35 55 61 61
0 0 0 0 0 0 0 0 0 0 0 0 0 0 0 0 0 0 0 0 0 0 0 0 0 0 0 0 0 0 0 0 0 0 0 29 65 58 48 32 32 32 55
0 0 0 0 0 0 0 0 0 0 0 0 0 0 0 0 0 0 0 0 0 0 0 0 0 0 0 0 0 0 0 0 0 0 0 3 26 48 52 42 35 32 45
0 0 0 0 0 0 0 0 0 0 0 0 0 0 0 0 0 0 0 0 0 0 0 0 0 0 0 0 0 0 0 0 0 0 0 0 10 19 32 35 48 32 29
0 0 0 0 0 0 0 0 0 0 0 0 0 0 0 0 0 0 0 0 0 0 0 0 0 0 0 0 0 0 0 0 0 0 0 0 3 3 3 16 35 39 39
0 0 0 0 0 0 0 0 0 0 0 0 0 0 0 0 0 0 0 0 0 0 0 0 0 0 0 0 0 0 0 0 0 0 0 0 0 0 0 3 6 26 29
0 0 0 0 0 0 0 0 0 0 0 0 0 0 0 0 0 0 0 0 0 0 0 0 0 0 0 0 0 0 0 0 0 0 0 0 0 0 0 0 0 3 13
0 0 0 0 0 0 0 0 0 0 0 0 0 0 0 0 0 0 0 0 0 0 0 0 0 0 0 0 0 0 0 0 0 0 0 0 0 0 0 0 0 0 0
0 0 0 0 0 0 0 0 0 0 0 0 0 0 0 0 0 0 0 0 0 0 0 0 0 0 0 0 0 0 0 0 0 0 0 0 0 0 0 0 0 0 0
0 0 0 0 0 0 0 0 0 0 0 0 0 0 0 0 0 0 0 0 0 0 0 0 0 0 0 0 0 0 0 0 0 0 0 0 0 0 0 0 0 0 0
0 0 0 0 0 0 0 0 0 0 0 0 0 0 0 0 0 0 0 0 0 0 0 0 0 0 0 0 0 0 0 0 0 0 0 0 0 0 0 0 0 0 0
0 0 0 0 0 0 0 0 0 0 0 0 0 0 0 0 0 0 0 0 0 0 0 0 0 0 0 0 0 0 0 0 0 0 0 0 0 0 0 0 0 0 0
0 0 0 0 0 0 0 0 0 0 0 0 0 0 0 0 0 0 0 0 0 0 0 0 0 0 0 0 0 0 0 0 0 0 0 0 0 0 0 0 0 0 0

GEFSSE_con_cape1000_132.txt.gz
Probability
3 3 32 39 39 45 48 48 52 68 65 55 61 55 61 52 52 58 55 55 65 68 74 74 81 81 81 81 84 87 87 87 81 87 97 87 84 81 77 77 81 65 58
3 3 23 32 26 35 42 45 48 52 52 52 45 42 42 48 45 48 45 45 48 55 61 65 71 74 77 81 81 84 90 87 84 87 87 81 81 77 74 74 74 74 55
0 3 10 29 35 35 39 48 39 42 39 35 35 35 35 35 39 35 42 39 35 39 45 52 58 65 74 77 81 87 87 90 87 81 84 77 84 77 68 71 65 61 55
3 3 0 23 16 16 23 23 35 26 26 29 26 29 26 16 23 23 16 29 29 32 35 39 42 48 55 58 71 77 77 84 87 84 74 74 74 81 77 74 58 61 61
3 0 3 13 10 10 19 23 16 19 16 16 19 16 16 16 16 19 16 26 26 26 26 29 35 39 42 52 68 61 68 74 77 71 77 84 84 81 81 77 58 55 65
0 0 0 16 6 3 3 13 10 13 10 10 10 13 16 16 13 13 13 16 13 16 19 29 29 32 26 35 52 55 61 58 68 68 77 71 84 84 81 77 68 61 58
0 0 0 10 6 13 6 6 3 3 10 10 10 10 13 16 10 13 13 10 10 10 13 16 26 26 29 26 35 52 42 42 45 52 65 71 77 77 84 74 71 58 58
0 0 0 6 3 3 0 3 3 3 3 3 6 6 10 13 13 13 13 13 13 13 16 16 16 10 13 23 16 23 35 42 13 39 48 61 68 71 71 77 61 58 58
0 0 0 0 0 3 6 6 6 3 3 3 3 3 6 10 10 6 6 6 10 10 6 3 6 6 6 13 13 13 26 26 29 32 26 48 58 74 68 61 61 61 55
0 0 0 0 0 0 0 0 3 3 3 3 3 3 3 10 6 3 3 3 6 0 3 3 3 6 6 13 19 13 13 16 16 19 26 42 52 71 65 55 55 52 58
0 0 0 0 0 0 0 0 0 0 0 0 0 0 0 0 0 0 3 6 0 0 0 0 6 3 3 6 3 10 10 13 6 10 32 52 55 52 52 52 42 52 52
0 0 0 0 0 0 0 0 0 0 0 0 0 0 0 0 0 0 0 0 0 0 3 3 3 0 0 0 0 3 6 3 0 10 26 48 55 52 39 48 52 39 45
0 0 0 0 0 0 0 0 0 0 0 0 0 0 0 0 0 0 0 0 0 0 0 0 0 0 0 0 0 3 3 0 0 3 23 52 58 45 42 39 39 35 39
0 0 0 0 0 0 0 0 0 0 0 0 0 0 0 0 0 0 0 0 0 0 0 0 0 0 0 3 3 3 3 0 10 10 26 42 52 39 32 42 35 35 29
0 0 0 0 0 0 0 0 0 0 0 0 0 0 0 0 0 0 0 0 0 0 0 0 3 3 3 3 3 3 3 6 10 10 32 42 48 45 45 39 35 32 26
0 0 0 0 0 0 0 0 0 0 0 0 0 0 0 0 0 0 0 3 0 0 0 3 3 3 3 3 6 6 10 6 10 10 19 26 23 42 39 35 29 29 19
0 0 0 0 0 0 0 0 0 0 0 0 0 0 0 0 0 0 0 0 3 3 3 3 0 3 3 3 6 6 6 6 10 3 10 10 16 16 32 26 26 32 13
0 0 0 0 0 0 0 0 0 0 0 0 0 0 0 0 0 0 0 3 3 3 3 3 6 6 3 6 6 6 10 23 13 10 3 6 16 16 19 29 26 29 16
0 0 0 0 0 0 0 0 0 0 0 0 0 0 0 0 0 0 0 3 0 3 3 0 3 6 13 13 10 13 10 16 19 3 3 3 10 16 16 6 10 16 19
0 0 0 0 0 0 0 0 0 0 0 0 0 0 0 0 0 0 0 0 0 3 3 6 10 10 13 13 3 10 10 13 19 13 6 16 13 3 3 6 10 6 6
0 0 0 0 0 0 0 0 0 0 0 0 0 0 0 0 0 0 0 0 3 3 3 3 3 3 6 6 13 10 6 6 13 13 10 19 19 13 3 16 6 13 10
0 0 0 0 0 0 0 0 0 0 0 0 0 0 0 0 0 0 0 0 3 3 3 3 3 3 3 6 3 3 3 3 3 0 6 13 10 13 13 0 3 6 3
0 0 0 0 0 0 0 0 0 0 0 0 0 0 0 0 0 0 0 0 0 0 3 3 3 3 6 0 0 0 0 0 3 0 3 6 10 13 6 6 6 6 3
0 0 0 0 0 0 0 0 0 0 0 0 0 0 0 0 0 0 0 0 0 0 0 0 0 3 0 6 3 0 0 0 0 3 6 3 3 3 6 3 6 10 10
0 0 0 0 0 0 0 0 0 0 0 0 0 0 0 0 0 0 0 0 0 0 0 3 0 3 6 3 3 3 0 0 0 3 3 0 0 3 3 6 3 13 6
3 0 0 0 0 0 0 0 0 0 0 0 0 0 0 0 0 0 0 0 0 0 0 3 3 6 6 6 6 3 3 0 3 0 0 0 0 3 0 0 0 0 10